Wind_Speed
43 42 42 40 41 41 43 42 41 41 43 38 37 33 31 30 29 27 30 29 33 32 31 31 24 24 14 16 15 18 16 16 17 19 22 24 25 24 26 28 29 32 36 34 37 36 36
46 45 44 43 40 40 39 39 41 40 41 42 40 39 33 31 30 30 29 25 29 37 30 30 23 21 12 16 17 16 16 17 17 18 19 20 21 19 23 26 24 28 32 36 38 35 35
47 47 48 47 45 43 39 40 37 37 38 38 38 37 36 32 30 29 26 30 33 33 25 26 23 18 12 12 14 17 11 14 15 15 17 18 19 19 22 24 23 24 28 30 35 36 31
47 48 49 49 48 47 44 42 37 36 35 35 36 33 36 31 29 28 30 29 27 35 19 22 20 15 11 13 14 12 13 13 14 15 17 18 17 18 21 23 23 20 20 27 33 32 34
46 45 46 47 46 46 47 44 40 33 32 32 30 31 31 31 30 27 26 29 29 36 17 16 18 13 10 8 12 12 11 13 12 13 13 13 15 17 17 19 20 22 22 23 34 30 27
48 49 48 49 48 47 41 42 42 40 34 31 31 26 26 26 27 22 26 27 32 28 12 16 15 9 9 11 11 10 11 9 8 10 10 11 14 17 17 21 16 18 23 26 30 28 31
50 50 49 47 46 45 44 40 36 35 35 33 29 28 23 20 26 24 22 28 34 27 14 12 11 9 10 10 10 11 9 8 7 7 8 9 14 17 16 23 20 20 18 22 21 19 33
49 49 43 34 36 40 38 35 34 36 37 34 31 27 22 14 23 19 23 28 35 14 14 11 9 10 7 9 8 9 7 6 6 6 7 13 22 17 17 20 20 24 24 21 16 28 26
46 46 35 35 32 32 35 37 34 35 34 35 31 28 23 11 24 22 18 31 25 1 10 10 12 8 6 8 6 6 6 8 7 9 11 17 15 22 22 14 14 20 27 23 12 24 21
44 41 35 35 34 32 34 33 33 34 34 32 31 26 21 16 26 25 22 26 18 5 5 8 13 6 6 2 1 7 7 7 8 7 7 12 10 11 11 11 10 7 16 18 18 19 9
42 36 33 34 31 34 35 36 35 35 31 29 27 20 17 23 25 22 24 20 7 7 1 8 13 8 4 3 3 5 3 5 11 10 9 7 6 2 6 9 13 12 21 11 14 19 13
41 35 30 32 33 36 36 36 33 24 23 21 21 12 10 19 23 25 23 16 11 6 5 11 12 10 6 4 4 5 7 9 9 7 10 9 6 2 9 11 11 18 18 17 15 12 5
44 37 29 31 35 33 38 32 24 23 27 22 14 17 17 20 23 24 22 21 11 4 8 12 12 12 7 5 2 3 7 11 4 3 6 11 6 5 8 11 17 18 15 3 4 4 3
42 34 28 33 31 31 34 27 23 26 28 25 19 23 30 17 23 20 19 24 6 9 15 12 13 12 7 5 2 4 6 8 5 9 4 2 3 7 16 11 10 14 2 2 4 3 4
43 37 33 31 30 31 28 23 24 27 27 29 30 17 32 13 25 19 26 12 2 10 14 15 15 11 8 5 3 1 5 7 4 3 1 3 3 4 6 6 16 7 5 8 10 9 5
39 34 32 30 29 27 24 24 24 26 29 22 9 14 22 23 21 27 25 11 6 10 13 15 6 7 7 6 3 2 4 7 6 5 4 7 11 17 15 7 14 7 6 4 4 3 3
34 31 31 30 28 25 23 25 26 24 27 16 22 24 20 21 29 26 24 7 9 14 11 10 7 7 6 7 2 3 4 8 11 11 9 10 7 11 5 5 12 8 1 3 5 3 4
30 29 31 31 28 24 24 23 20 20 20 12 22 16 24 28 29 28 16 7 12 15 10 8 8 6 9 7 2 3 3 4 5 8 9 11 12 7 7 8 8 5 8 9 4 2 8
32 34 36 34 31 27 23 19 12 11 12 15 15 29 26 30 10 26 15 11 15 14 8 8 7 7 8 6 3 4 6 7 7 5 4 8 10 6 4 4 6 3 1 8 11 8 5
35 36 35 33 26 16 10 8 6 6 8 16 23 21 23 23 9 16 13 14 15 13 7 7 8 10 10 7 5 5 8 5 7 8 6 6 8 3 6 4 4 3 3 1 5 4 4
37 36 34 29 20 9 6 2 8 9 14 17 13 24 19 25 8 15 15 17 16 13 7 9 9 10 7 4 6 6 5 3 4 5 6 6 6 7 8 7 5 6 6 4 2 3 2
33 33 37 28 14 6 14 12 10 9 15 14 8 20 12 8 12 14 16 14 14 13 10 7 11 9 5 4 5 4 3 3 1 2 4 5 6 7 8 6 4 5 4 3 2 2 1
28 37 35 27 24 16 20 16 11 17 12 12 21 11 2 5 15 17 17 12 13 10 9 7 11 6 3 2 2 2 1 3 1 1 3 4 5 3 2 3 3 3 2 2 4 5 5
27 33 34 30 29 25 23 18 13 9 8 11 4 8 9 2 18 19 18 13 13 11 8 9 11 8 8 5 2 3 3 2 2 2 3 4 4 3 3 1 3 2 2 2 4 5 4
27 31 31 32 26 26 20 15 8 10 9 7 5 3 7 10 21 16 18 13 13 10 10 12 11 7 8 7 8 5 3 3 2 2 3 3 2 3 2 2 3 3 2 3 3 3 3
22 25 27 30 22 22 18 10 7 10 6 9 7 6 7 16 12 16 18 15 12 9 13 11 9 6 7 5 3 2 1 2 1 0 2 2 2 2 1 2 1 0 2 2 4 3 4
21 17 22 23 20 17 11 10 5 7 8 7 6 7 10 5 10 16 17 15 12 9 11 11 9 8 6 3 1 1 1 2 1 0 0 1 2 2 3 3 4 5 5 5 2 1 4
15 9 12 14 12 10 9 9 8 6 7 5 5 6 6 4 7 16 16 15 13 11 8 9 9 11 9 6 3 1 1 2 2 2 1 2 2 2 5 5 4 1 3 3 5 8 11
17 10 4 6 7 5 5 4 5 5 4 1 1 2 3 4 7 16 15 16 13 12 12 7 7 4 8 6 4 3 2 2 3 3 5 4 6 2 6 3 4 5 7 10 11 12 14
Wind_Direction
310 309 306 304 302 298 295 294 292 291 291 288 284 280 280 277 280 286 304 299 307 317 314 310 308 300 308 310 297 295 283 282 281 272 261 258 258 256 252 251 252 251 245 250 252 244 236
314 312 311 309 304 301 298 295 291 289 288 290 287 285 278 277 276 280 297 305 307 300 311 310 304 294 311 310 302 288 291 288 281 277 269 264 263 256 253 255 250 249 248 247 245 245 242
314 312 310 310 309 306 304 301 300 296 292 288 284 280 275 272 274 273 287 297 300 298 310 308 298 289 304 298 296 296 290 291 287 280 273 271 266 257 254 259 261 258 252 253 249 241 235
315 312 309 307 307 308 308 305 300 299 300 297 292 282 274 266 268 272 274 286 291 302 319 302 292 292 304 302 295 290 296 295 290 285 277 268 262 265 260 258 254 267 264 257 244 244 230
313 312 310 308 308 306 306 306 305 300 296 296 296 294 283 269 259 272 278 282 289 297 317 300 289 287 299 291 296 295 305 304 296 301 296 272 253 258 259 263 269 252 244 249 251 236 219
319 319 317 316 314 312 309 305 302 301 300 296 294 295 292 276 256 273 266 288 296 294 311 285 277 277 286 302 302 291 301 298 301 289 275 248 255 256 259 251 240 233 238 241 248 227 208
326 323 320 318 316 316 312 308 302 300 300 301 296 290 296 295 261 249 268 279 284 288 286 274 279 267 292 299 290 279 285 284 297 310 283 267 255 248 267 260 254 255 238 227 240 200 207
325 321 322 321 316 316 314 310 307 306 304 301 298 294 293 295 257 254 267 276 280 297 272 269 254 260 277 290 289 288 255 269 278 277 258 261 263 281 273 283 264 251 239 233 240 210 203
323 321 319 321 318 317 316 316 314 307 302 302 299 291 288 257 268 235 280 272 286 87 251 270 232 238 263 277 290 309 279 266 272 275 279 271 283 292 294 298 257 237 230 233 147 151 184
323 317 315 315 312 317 316 312 311 304 301 298 295 293 286 262 253 238 269 276 291 251 254 243 214 220 235 273 340 330 300 266 270 285 293 283 320 297 263 276 269 185 150 175 162 155 118
323 320 318 319 319 320 317 315 312 306 296 293 288 276 252 235 245 238 249 267 239 173 324 190 191 190 176 88 337 4 324 336 290 269 263 296 10 14 305 35 109 125 155 179 164 132 118
328 322 318 318 318 317 314 315 315 312 298 287 275 254 250 240 237 223 244 233 151 152 246 185 176 180 162 119 78 12 325 295 296 303 263 267 299 42 82 71 118 117 119 121 150 138 71
334 326 322 316 318 321 321 321 317 317 316 322 260 261 216 193 219 222 246 151 149 196 196 189 185 178 165 136 144 323 311 307 299 102 113 121 97 117 127 100 128 135 131 80 55 43 87
339 337 328 320 321 324 323 325 317 317 315 312 272 239 228 181 204 232 206 150 160 210 176 174 163 162 148 148 126 37 17 43 108 132 131 62 114 127 139 136 143 159 212 120 115 131 125
335 332 331 328 326 328 325 328 324 327 318 311 311 207 208 185 191 219 184 172 187 189 184 167 151 164 153 169 157 342 7 74 122 134 216 150 84 167 145 154 150 139 119 88 99 86 81
336 334 332 333 333 331 330 332 334 326 324 342 107 139 180 174 186 181 160 154 181 167 159 157 136 165 178 172 155 4 6 46 80 131 83 63 92 122 129 109 118 84 88 72 99 96 85
341 340 342 342 338 331 333 333 332 328 335 24 130 147 167 175 164 163 178 153 164 141 148 162 150 152 157 139 128 35 53 56 77 95 86 81 112 137 93 135 146 145 296 95 102 102 145
351 348 343 342 338 333 330 332 338 327 6 84 142 137 160 155 159 172 188 179 155 150 141 132 146 141 139 142 123 82 73 81 93 88 87 95 122 119 110 138 153 105 52 31 29 36 67
350 344 342 340 336 329 323 323 325 354 52 111 119 129 151 161 146 179 172 150 158 152 141 128 147 138 144 135 110 77 109 96 76 70 91 119 139 116 108 131 181 163 97 68 72 69 55
345 339 336 338 340 340 331 330 11 66 95 122 124 133 150 165 168 167 159 147 159 149 130 122 133 139 144 116 64 94 118 103 83 75 86 99 132 105 139 136 166 170 173 78 53 46 111
345 345 355 2 351 336 321 2 91 114 129 120 130 155 163 182 171 154 154 156 164 156 140 134 122 135 137 112 66 85 127 147 71 68 60 121 110 87 84 108 133 170 191 206 194 119 46
5 11 15 13 4 54 51 55 97 79 124 110 116 165 170 172 162 154 155 156 168 173 150 135 137 132 134 106 75 62 168 189 156 64 65 73 126 110 77 77 100 113 169 196 198 207 193
24 26 29 31 36 65 80 70 123 64 108 133 72 146 150 101 172 148 152 154 162 176 155 132 138 136 137 105 46 34 92 151 56 96 78 65 116 98 61 69 80 103 105 165 196 220 229
36 40 44 48 57 78 76 71 77 62 84 112 106 61 28 52 161 153 158 151 159 166 158 150 145 152 126 86 88 108 138 140 111 125 86 103 113 84 48 70 45 357 342 319 289 273 275
41 36 39 51 61 83 98 108 99 37 45 84 99 50 25 123 148 150 154 156 166 150 153 152 144 133 129 114 107 107 88 116 112 150 126 135 121 70 69 13 288 294 292 304 309 310 309
34 42 33 40 58 73 82 75 60 359 69 109 94 64 53 138 140 149 159 158 160 149 158 161 162 154 152 132 116 103 114 167 180 215 200 217 248 256 53 13 242 301 14 349 309 303 303
10 40 32 27 31 29 27 80 96 22 108 113 98 60 95 49 144 160 166 170 160 162 173 171 175 180 192 185 114 78 120 170 200 7 280 243 286 173 230 263 272 270 301 306 291 289 305
359 10 53 38 37 43 45 59 82 89 84 113 70 61 61 49 159 164 174 179 182 186 180 186 188 205 209 209 206 215 234 215 228 231 216 209 212 195 201 226 280 277 307 300 296 291 292
357 351 8 80 62 73 108 125 152 146 126 93 353 5 37 26 173 170 180 192 195 208 203 193 199 216 213 205 217 223 244 267 265 262 245 243 224 245 227 248 257 288 302 300 299 299 297
Height
3112 3107 3103 3099 3094 3090 3088 3085 3083 3081 3078 3076 3076 3076 3076 3075 3075 3074 3071 3069 3068 3065 3060 3056 3051 3050 3043 3047 3048 3046 3045 3045 3046 3046 3046 3047 3047 3048 3047 3048 3049 3048 3051 3052 3052 3056 3060
3104 3099 3095 3090 3086 3081 3078 3074 3072 3070 3068 3068 3067 3067 3066 3067 3068 3067 3065 3063 3062 3059 3056 3051 3047 3045 3042 3044 3043 3042 3041 3040 3040 3040 3040 3040 3040 3042 3042 3042 3043 3044 3045 3045 3045 3049 3053
3095 3090 3084 3080 3076 3073 3071 3065 3063 3060 3058 3056 3056 3056 3055 3058 3059 3059 3058 3056 3056 3053 3051 3047 3045 3042 3039 3040 3039 3039 3037 3036 3036 3035 3035 3036 3036 3037 3037 3037 3037 3038 3038 3039 3038 3043 3046
3088 3082 3076 3071 3066 3062 3059 3056 3055 3052 3050 3047 3045 3045 3045 3048 3050 3051 3050 3050 3049 3048 3045 3042 3041 3038 3035 3035 3036 3035 3034 3033 3032 3031 3031 3031 3032 3033 3032 3032 3032 3033 3034 3032 3032 3036 3042
3081 3075 3069 3064 3059 3054 3050 3046 3044 3043 3042 3040 3037 3036 3036 3038 3041 3043 3044 3044 3043 3042 3040 3037 3037 3035 3033 3033 3033 3032 3031 3030 3028 3027 3026 3027 3029 3028 3029 3028 3029 3027 3026 3025 3026 3030 3037
3071 3065 3058 3052 3046 3042 3040 3036 3033 3032 3032 3031 3031 3029 3028 3029 3032 3035 3037 3037 3037 3035 3034 3032 3032 3034 3031 3031 3029 3029 3028 3027 3026 3025 3025 3025 3025 3024 3024 3025 3022 3020 3021 3020 3020 3026 3032
3061 3054 3047 3041 3036 3032 3028 3025 3023 3022 3021 3021 3021 3022 3021 3021 3024 3026 3031 3032 3033 3031 3029 3029 3028 3028 3028 3028 3027 3026 3025 3025 3024 3023 3023 3023 3023 3020 3020 3019 3018 3017 3014 3016 3017 3022 3028
3052 3045 3039 3034 3030 3024 3020 3017 3014 3011 3010 3011 3012 3013 3015 3016 3016 3020 3024 3026 3025 3025 3024 3024 3024 3025 3024 3025 3024 3023 3023 3024 3022 3022 3021 3022 3016 3017 3015 3012 3012 3009 3012 3012 3016 3022 3028
3046 3039 3033 3027 3023 3018 3012 3008 3006 3004 3002 3001 3002 3005 3007 3010 3010 3013 3016 3018 3018 3018 3021 3021 3022 3021 3022 3024 3022 3021 3021 3020 3020 3019 3018 3017 3016 3014 3010 3008 3007 3005 3006 3010 3012 3018 3028
3039 3032 3026 3021 3016 3012 3007 3004 3000 2996 2994 2993 2993 2995 2999 3001 3004 3007 3011 3012 3012 3016 3018 3018 3017 3019 3020 3020 3021 3019 3018 3019 3017 3016 3016 3014 3012 3010 3008 3005 3004 3005 3004 3012 3016 3020 3025
3031 3024 3019 3014 3009 3005 3000 2995 2991 2989 2986 2985 2985 2987 2989 2991 2996 3001 3006 3007 3010 3015 3021 3016 3015 3015 3017 3020 3020 3018 3017 3016 3015 3015 3016 3014 3012 3009 3007 3003 3006 3009 3011 3016 3018 3022 3028
3022 3016 3012 3007 3002 2997 2992 2988 2982 2980 2977 2976 2977 2979 2982 2984 2990 2994 3000 3002 3008 3016 3015 3013 3012 3013 3016 3017 3018 3017 3017 3016 3014 3013 3012 3010 3012 3011 3010 3009 3009 3013 3016 3018 3021 3023 3031
3015 3009 3004 3000 2995 2990 2985 2980 2977 2974 2970 2967 2969 2972 2972 2976 2985 2990 2994 2998 3009 3010 3009 3010 3009 3011 3014 3016 3017 3017 3016 3014 3015 3015 3013 3011 3013 3014 3014 3013 3016 3018 3018 3022 3026 3025 3031
3008 3003 2998 2993 2987 2983 2978 2974 2971 2968 2964 2961 2962 2962 2965 2970 2979 2987 2992 2997 3002 3001 3003 3004 3006 3009 3013 3015 3017 3017 3016 3014 3014 3014 3014 3014 3017 3016 3016 3017 3018 3018 3019 3020 3022 3029 3033
3004 2997 2992 2987 2982 2977 2973 2970 2966 2963 2957 2952 2945 2947 2959 2967 2977 2985 2991 2995 2997 2998 3002 3002 3005 3008 3012 3015 3017 3017 3016 3016 3015 3015 3015 3015 3017 3017 3018 3019 3023 3021 3021 3022 3023 3027 3029
2999 2994 2988 2982 2977 2972 2969 2966 2963 2957 2951 2943 2941 2948 2961 2969 2977 2983 2989 2993 2996 2998 3000 3003 3004 3007 3011 3015 3017 3018 3017 3016 3016 3015 3014 3015 3017 3021 3022 3022 3024 3023 3027 3026 3026 3032 3038
2995 2990 2985 2979 2974 2969 2966 2963 2960 2954 2948 2943 2948 2955 2962 2971 2977 2984 2989 2993 2997 2999 3002 3004 3004 3008 3011 3014 3017 3018 3019 3019 3018 3018 3018 3018 3020 3026 3026 3026 3027 3028 3027 3027 3027 3029 3032
2992 2987 2982 2976 2971 2967 2963 2961 2958 2954 2951 2951 2954 2960 2966 2973 2980 2984 2990 2995 2997 3000 3002 3004 3007 3010 3013 3016 3017 3018 3019 3020 3021 3020 3020 3020 3024 3027 3028 3029 3030 3030 3029 3028 3026 3030 3029
2988 2983 2978 2973 2968 2964 2960 2958 2958 2957 2956 2957 2959 2964 2972 2978 2983 2987 2992 2995 2998 3002 3004 3006 3009 3012 3014 3016 3019 3020 3021 3022 3022 3022 3023 3025 3028 3030 3032 3033 3032 3032 3033 3033 3031 3032 3035
2985 2980 2974 2968 2963 2959 2957 2957 2958 2959 2961 2964 2965 2971 2978 2983 2986 2991 2994 2997 3000 3004 3007 3009 3011 3013 3016 3018 3019 3021 3022 3024 3024 3024 3024 3025 3026 3027 3029 3030 3032 3033 3034 3036 3037 3039 3040
2983 2976 2969 2964 2959 2957 2956 2956 2958 2961 2965 2970 2973 2976 2980 2986 2989 2993 2996 3000 3003 3006 3010 3012 3014 3017 3019 3020 3021 3022 3023 3025 3026 3026 3026 3027 3027 3029 3030 3031 3033 3035 3037 3038 3039 3041 3043
2985 2976 2968 2963 2958 2956 2958 2961 2964 2968 2972 2977 2979 2980 2986 2986 2992 2995 2999 3002 3006 3009 3011 3015 3017 3019 3021 3022 3024 3024 3024 3025 3027 3029 3029 3028 3030 3032 3033 3034 3035 3036 3038 3040 3041 3043 3044
2988 2977 2971 2967 2964 2961 2964 2969 2975 2977 2981 2983 2982 2987 2990 2990 2993 2999 3002 3005 3008 3012 3014 3017 3019 3021 3022 3023 3024 3025 3026 3027 3028 3030 3030 3030 3031 3033 3034 3035 3036 3038 3038 3039 3041 3042 3043
2991 2983 2978 2974 2972 2971 2974 2979 2983 2986 2988 2988 2989 2991 2992 2992 2996 3000 3003 3006 3010 3013 3016 3018 3020 3022 3025 3024 3025 3026 3027 3029 3030 3030 3031 3031 3032 3033 3034 3034 3038 3037 3037 3038 3039 3040 3041
2995 2990 2988 2983 2982 2982 2984 2986 2990 2991 2993 2993 2994 2996 2995 2994 2999 3003 3006 3009 3012 3015 3017 3020 3022 3025 3025 3026 3027 3028 3029 3030 3031 3031 3032 3033 3033 3034 3035 3035 3037 3036 3036 3037 3037 3039 3039
3001 2996 2993 2991 2993 2991 2992 2994 2995 2995 2995 2997 2998 2998 2998 3000 3004 3006 3009 3012 3015 3017 3020 3021 3024 3025 3027 3028 3029 3029 3030 3031 3032 3032 3032 3032 3033 3035 3035 3035 3035 3036 3035 3035 3035 3037 3037
3006 3001 2998 2996 2995 2995 2995 2996 2998 2999 2998 2999 3000 3001 3002 3003 3005 3009 3012 3014 3017 3020 3021 3023 3025 3027 3029 3029 3030 3030 3031 3032 3032 3032 3032 3032 3033 3034 3034 3035 3034 3034 3034 3034 3036 3040 3035
3011 3006 3001 3001 3000 2998 2998 2998 2999 3001 3002 3004 3004 3004 3005 3006 3008 3010 3013 3016 3018 3021 3023 3024 3027 3027 3029 3031 3031 3031 3031 3032 3032 3033 3032 3033 3033 3033 3034 3034 3034 3033 3033 3034 3034 3033 3033
3012 3009 3005 2999 3001 3001 3000 3001 3001 3002 3004 3006 3006 3006 3006 3008 3009 3011 3014 3016 3019 3021 3023 3025 3027 3027 3029 3031 3032 3031 3031 3032 3032 3032 3032 3033 3033 3034 3035 3032 3032 3031 3031 3031 3031 3031 3030